Regional Weather Roundup
Issued by NWS

Home | Current Version | Previous Version | Text Only | Print | Product List | Glossary On
Versions: 1 2 3 4 5 6 7 8 9 10 11 12 13 14 15 16 17 18 19 20 21 22 23 24 25 26 27 28 29 30 31 32 33 34 35 36 37 38 39 40 41 42 43 44 45 46 47 48 49 50
000
ASUS45 KCYS 270710
RWRWY

WYOMING REGIONAL WEATHER ROUNDUP
NATIONAL WEATHER SERVICE CHEYENNE WY
100 AM MDT MON APR 27 2015

NOTE:  "FAIR" INDICATES FEW OR NO CLOUDS BELOW 12,000 FEET
WITH NO SIGNIFICANT WEATHER AND/OR OBSTRUCTIONS TO VISIBILITY.

WYZ001-270800-
YELLOWSTONE NATIONAL PARK

CITY           SKY/WX    TMP DP  RH WIND       PRES   REMARKS
LK YELLOWSTONE   N/A     31  26  82 CALM      30.22R
W YELLOWSTONE  NOT AVBL

$$
WYZ002>013-054>058-071-098>099-270800-
NORTHERN WYOMING

CITY           SKY/WX    TMP DP  RH WIND       PRES   REMARKS
JACKSON        CLOUDY    39  36  87 N3        30.18R
CODY           CLOUDY    34  32  93 NE7       30.23R WCI  28
GREYBULL       NOT AVBL
WORLAND        CLOUDY    38  34  85 NW7       30.22S WCI  33
SHERIDAN       NOT AVBL
BUFFALO        CLOUDY    34  33  96 N17G24    30.22S WCI  23
GILLETTE       CLOUDY    35  34  96 N12       30.21R WCI  27
HULETT         LGT RAIN  36  36 100 N8        30.22R WCI  29
NEWCASTLE      LGT RAIN  41  41 100 W5        30.19R

$$
WYZ014>020-022>026-101>103-270800-
CENTRAL WYOMING

CITY           SKY/WX    TMP DP  RH WIND       PRES   REMARKS
BIG PINEY      NOT AVBL
PINEDALE       CLOUDY    36  34  93 CALM      30.15R
DUBOIS         FLURRIES  32  32 100 SE6       30.16S WCI  26
LANDER         LGT RAIN  38  36  92 N6        30.16R FOG     WCI  33
RIVERTON       CLOUDY    38  32  79 N12       30.18R WCI  30
CASPER         LGT SNOW  33  32  96 NE6       30.18R FOG     WCI  28
DOUGLAS        CLOUDY    40  39  97 W6        30.16S

$$
WYZ021-027>030-104>119-270800-
SOUTHERN WYOMING

CITY           SKY/WX    TMP DP  RH WIND       PRES   REMARKS
EVANSTON       NOT AVBL
KEMMERER       MIX PCPN  34  32  93 NW6       30.16R WCI  29
FORT BRIDGER   LGT SNOW  34  34 100 W12       30.18R WCI  25
ROCK SPRINGS   CLOUDY    36  33  89 NE12      30.13S WCI  28
DIXON          CLOUDY    40  37  89 E7        30.07R WCI  35
RAWLINS        CLOUDY    37  33  85 N9        30.11R WCI  30
SARATOGA       FAIR      36  34  93 MISG      30.08S
LARAMIE        CLOUDY    37  32  82 SE8       30.11R WCI  31
CHEYENNE       LGT SNOW  33  32  96 SE5       30.14R FOG     WCI  29
TORRINGTON     CLOUDY    42  40  92 S6        30.15R
PINE BLUFFS    LGT RAIN  37  37 100 E7        30.15R WCI  32

$$


USA.gov is the U.S. government's official web portal to all federal, state and local government web resources and services.